{"data":{"norad_id":66745,"epoch":"2026-05-25T03:52:42.544992Z","epoch_age_seconds":54897,"freshness":"FRESH","line1":"1 66745U 25276CH  26145.16160353  .00001950  00000+0  98311-4 0  9993","line2":"2 66745  97.4204 218.9285 0003741  80.5652 279.6004 15.18317093 26916","mean_motion":15.18317093,"eccentricity":0.0003741,"inclination_deg":97.4204,"raan_deg":218.9285,"arg_perigee_deg":80.5652,"mean_anomaly_deg":279.6004,"bstar":9.8311e-5,"rev_number":2691,"period_min":94.841848691484,"perigee_km":508.34928947244,"apogee_km":513.50368677425,"semimajor_km":6889.0634881233,"source":"CELESTRAK","updated_at":"2026-05-25T13:38:06.450314Z"}}